GW5466 Weather Reports


time (UTC)temp
F
wind
direction
speed
knots
gust
knots
rain 1hr
in
rain 24hr
in
rain mn
in
humidity
%
barometer
mb
20260507165802 63 239 1.7 5.2 0.00 0.00 0.00 51 1016.7
20260507165306 63 192 3.5 5.2 0.00 0.00 0.00 51 1016.7
20260507164802 63 205 4.3 5.2 0.00 0.00 0.00 51 1016.7
20260507164302 63 219 1.7 5.2 0.00 0.00 0.00 52 1016.7
20260507163732 63 246 1.7 5.2 0.00 0.00 0.00 54 1017.1
20260507163232 63 258 3.5 5.2 0.00 0.00 0.00 51 1017.1
20260507162702 63 325 3.5 3.5 0.00 0.00 0.00 52 1017.1
20260507162202 63 283 1.7 6.1 0.00 0.00 0.00 51 1017.2
20260507161702 63 238 1.7 5.2 0.00 0.00 0.00 51 1017.0
20260507161133 62 239 2.6 4.3 0.00 0.00 0.00 53 1017.2
20260507160632 61 345 1.7 5.2 0.00 0.00 0.00 55 1017.2
20260507160132 61 319 0.9 4.3 0.00 0.00 0.00 54 1017.1
20260507155632 61 194 5.2 5.2 0.00 0.00 0.00 54 1017.5
20260507155132 60 290 2.6 4.3 0.00 0.00 0.00 54 1017.4
20260507154632 60 231 2.6 5.2 0.00 0.00 0.00 54 1017.5
20260507154102 61 207 2.6 5.2 0.00 0.00 0.00 53 1017.2
20260507153602 62 265 2.6 4.3 0.00 0.00 0.00 53 1017.6
20260507153032 62 248 1.7 3.5 0.00 0.00 0.00 53 1017.2
20260507152502 61 250 0.0 7.8 0.00 0.00 0.00 53 1017.7
20260507152002 61 137 0.9 4.3 0.00 0.00 0.00 55 1017.6
20260507151432 61 275 3.5 5.2 0.00 0.00 0.00 55 1017.6
20260507151151 61 280 1.7 4.3 0.00 0.00 0.00 54 1017.9
20260507150402 61 312 0.9 6.1 0.00 0.00 0.00 55 1017.8
20260507145902 61 280 0.0 3.5 0.00 0.00 0.00 55 1017.9
20260507145332 60 251 1.7 5.2 0.00 0.00 0.00 55 1018.1
20260507144832 60 235 1.7 5.2 0.00 0.00 0.00 56 1017.8
20260507144332 60 298 1.7 2.6 0.00 0.00 0.00 56 1017.9
20260507143802 60 278 0.0 7.0 0.00 0.00 0.00 57 1018.0
20260507143232 59 215 0.0 3.5 0.00 0.00 0.00 57 1018.2
20260507142923 59 233 1.7 6.1 0.00 0.00 0.00 57 1017.9
20260507142133 58 300 4.3 4.3 0.00 0.00 0.00 58 1018.1
20260507141824 58 246 0.9 4.3 0.00 0.00 0.00 57 1018.0
20260507141102 58 261 4.3 5.2 0.00 0.00 0.00 57 1017.9
20260507140602 58 279 2.6 3.5 0.00 0.00 0.00 59 1018.2
20260507135532 57 321 0.9 2.6 0.00 0.00 0.00 62 1018.2
20260507135032 57 205 1.7 3.5 0.00 0.00 0.00 61 1018.1
20260507134724 56 293 1.7 1.7 0.00 0.00 0.00 62 1018.2
20260507134002 56 181 0.0 1.7 0.00 0.00 0.00 62 1018.2
20260507133432 55 227 1.7 1.7 0.00 0.00 0.00 63 1018.1
20260507133302 55 140 0.0 1.7 0.00 0.00 0.00 65 1018.1
20260507132802 54 215 0.0 3.5 0.00 0.00 0.00 65 1018.3
20260507132232 54 225 1.7 2.6 0.00 0.00 0.00 66 1018.1
20260507131732 53 184 0.9 2.6 0.00 0.00 0.00 67 1018.0
20260507131232 53 310 0.9 4.3 0.00 0.00 0.00 69 1018.1
20260507130702 51 339 1.7 3.5 0.00 0.00 0.00 71 1018.2
20260507130202 51 266 1.7 3.5 0.00 0.00 0.00 72 1018.5
20260507125633 50 342 1.7 4.3 0.00 0.00 0.00 73 1018.4
20260507125132 49 30 2.6 7.0 0.00 0.00 0.00 73 1018.4
20260507124602 49 16 2.6 5.2 0.00 0.00 0.00 73 1018.5
20260507124102 49 0 2.6 3.5 0.00 0.00 0.00 73 1018.5
20260507123532 48 9 4.3 4.3 0.00 0.00 0.00 73 1018.4
20260507123032 48 104 1.7 3.5 0.00 0.00 0.00 74 1018.3
20260507122502 47 0 0.0 3.5 0.00 0.00 0.00 74 1018.3
20260507122225 47 267 1.7 3.5 0.00 0.00 0.00 75 1018.2
20260507121432 47 244 1.7 4.3 0.00 0.00 0.00 74 1018.3
20260507121154 46 246 0.0 4.3 0.00 0.00 0.00 75 1018.4
20260507120402 46 62 0.0 3.5 0.00 0.00 0.00 75 1018.3
20260507115902 46 246 1.7 3.5 0.00 0.00 0.00 76 1018.3
20260507115332 45 113 0.9 1.7 0.00 0.00 0.00 76 1018.2
20260507115052 45 289 0.0 2.6 0.00 0.00 0.00 77 1018.2
20260507114302 44 175 0.0 1.7 0.00 0.00 0.00 77 1018.3
20260507113732 44 336 0.0 4.3 0.00 0.00 0.00 77 1018.2
20260507113232 44 138 1.7 3.5 0.00 0.00 0.00 77 1018.2
20260507112922 43 6 3.5 4.3 0.00 0.00 0.00 78 1017.9
20260507112203 43 16 5.2 5.2 0.00 0.00 0.00 78 1018.0
20260507111633 43 30 1.7 4.3 0.00 0.00 0.00 78 1017.9
20260507111102 43 291 1.7 3.5 0.00 0.00 0.00 78 1018.0
20260507110602 43 268 1.7 1.7 0.00 0.00 0.00 77 1018.1
20260507105609 43 83 3.5 3.5 0.00 0.00 0.00 76 1017.9
20260507105324 43 175 0.0 4.3 0.00 0.00 0.00 75 1018.0
20260507104602 43 116 2.6 3.5 0.00 0.00 0.00 76 1018.0
20260507104032 43 49 0.0 1.7 0.00 0.00 0.00 74 1018.0
20260507103532 43 104 2.6 4.3 0.00 0.00 0.00 74 1018.1
20260507103003 43 252 0.9 3.5 0.00 0.00 0.00 73 1018.1
20260507102432 44 87 2.6 4.3 0.00 0.00 0.00 72 1017.7
20260507101903 43 324 0.9 2.6 0.00 0.00 0.00 72 1017.7
20260507101555 43 35 3.5 4.3 0.00 0.00 0.00 73 1018.0
20260507100802 43 26 2.6 4.3 0.00 0.00 0.00 73 1018.0
20260507100302 43 324 1.7 4.3 0.00 0.00 0.00 72 1018.0
20260507095732 43 176 1.7 2.6 0.00 0.00 0.00 72 1018.0
20260507095424 43 62 0.9 0.9 0.00 0.00 0.00 72 1018.0
20260507094702 43 135 0.0 0.9 0.00 0.00 0.00 73 1018.1
20260507094132 42 108 0.0 0.9 0.00 0.00 0.00 73 1018.0
20260507093632 42 66 0.0 1.7 0.00 0.00 0.00 74 1018.0
20260507093132 42 58 0.9 1.7 0.00 0.00 0.00 74 1018.3
20260507092602 42 39 0.0 1.7 0.00 0.00 0.00 74 1017.9
20260507092102 42 69 0.0 1.7 0.00 0.00 0.00 74 1018.2
20260507091602 42 47 0.9 1.7 0.00 0.00 0.00 75 1018.2
20260507091102 42 61 0.0 1.7 0.00 0.00 0.00 76 1018.2
20260507090602 42 59 1.7 1.7 0.00 0.00 0.00 77 1018.1
20260507085822 42 68 0.0 1.7 0.00 0.00 0.00 77 1018.0
20260507085102 42 78 0.9 0.9 0.00 0.00 0.00 77 1018.2
20260507084602 42 50 0.0 0.9 0.00 0.00 0.00 78 1018.2
20260507084102 42 59 0.9 1.7 0.00 0.00 0.00 77 1018.2
20260507060002 49 41 0.0 0.9 0.00 0.00 0.00 59 1018.4
20260507055723 49 69 0.0 0.9 0.00 0.00 0.00 59 1018.5
20260507054932 49 54 0.0 1.7 0.00 0.00 0.00 60 1018.5
20260507054402 49 89 0.0 0.9 0.00 0.00 0.00 59 1018.4
20260507053902 49 44 0.0 0.9 0.00 0.00 0.00 59 1018.8
20260507053332 49 172 0.0 0.9 0.00 0.00 0.00 59 1018.6
20260507052832 49 50 0.0 1.7 0.00 0.00 0.00 59 1018.6
20260507052522 49 99 0.0 1.7 0.00 0.00 0.00 59 1018.6
20260507051955 49 73 0.0 0.9 0.00 0.00 0.00 59 1018.8
20260507051202 49 66 0.0 0.9 0.00 0.00 0.00 59 1018.5
20260507050632 49 66 0.0 0.9 0.00 0.00 0.00 59 1018.7
20260507050352 48 89 0.0 0.0 0.00 0.00 0.00 59 1018.6
20260507045632 48 103 0.0 0.9 0.00 0.00 0.01 59 1018.7
20260507045354 48 69 0.0 0.0 0.00 0.00 0.01 59 1018.7
20260507044602 48 62 0.0 0.0 0.00 0.00 0.01 60 1018.7
20260507044102 47 117 0.0 0.0 0.00 0.00 0.01 61 1018.7
20260507043602 47 50 0.0 0.0 0.00 0.00 0.01 64 1018.7
20260507043032 46 50 0.0 0.9 0.00 0.00 0.01 67 1018.8
20260507042753 46 129 0.0 0.0 0.00 0.00 0.01 68 1018.5
20260507042002 46 63 0.0 0.9 0.00 0.00 0.01 71 1018.5
20260507041502 46 95 0.0 0.9 0.00 0.00 0.01 72 1018.5
20260507040932 46 55 0.9 1.7 0.00 0.00 0.01 69 1018.5
20260507040432 46 66 0.9 1.7 0.00 0.00 0.01 68 1018.6
20260507040153 46 103 0.0 0.9 0.00 0.00 0.01 67 1018.7
20260507035402 46 89 0.0 0.9 0.00 0.00 0.01 67 1018.8
20260507034832 46 66 0.0 0.9 0.00 0.00 0.01 67 1019.0
20260507034302 46 86 0.0 0.9 0.00 0.00 0.01 67 1018.8
20260507033802 46 62 0.0 0.9 0.00 0.00 0.01 68 1018.7
20260507033524 46 117 0.0 0.9 0.00 0.00 0.01 67 1018.6
20260507032732 46 77 0.0 0.9 0.00 0.00 0.01 69 1018.7
20260507032718 46 39 0.0 0.9 0.00 0.00 0.01 69 1018.5
20260507031732 46 49 0.0 0.9 0.00 0.00 0.01 68 1018.6
20260507031232 46 66 0.0 0.9 0.00 0.00 0.01 68 1018.6
20260507030732 46 65 0.0 0.9 0.00 0.00 0.01 67 1018.5
20260507030453 46 89 0.0 0.9 0.00 0.00 0.01 66 1018.8
20260507025702 47 58 0.0 0.9 0.00 0.00 0.01 65 1018.6
20260507025202 47 72 0.0 0.9 0.00 0.00 0.01 63 1018.8
20260507024702 47 79 0.0 0.9 0.00 0.00 0.01 63 1018.7
20260507024140 48 67 0.9 0.9 0.00 0.00 0.01 60 1018.5
20260507023852 48 55 0.9 0.9 0.00 0.00 0.01 59 1018.3
20260507023132 49 113 0.0 0.9 0.00 0.00 0.01 57 1018.5
20260507022602 49 50 0.0 0.9 0.00 0.00 0.01 58 1018.1
20260507022032 49 66 0.0 0.9 0.00 0.00 0.01 56 1018.2
20260507021502 49 84 0.0 0.9 0.00 0.00 0.01 57 1018.1
20260507021002 49 103 0.0 0.9 0.00 0.00 0.01 56 1017.9
20260507020651 50 59 0.0 0.9 0.00 0.00 0.01 55 1018.3
20260507015932 50 89 0.0 0.9 0.00 0.00 0.01 54 1018.0
20260507015432 50 53 0.9 0.9 0.00 0.00 0.01 53 1018.0
20260507014903 51 73 0.0 0.9 0.00 0.00 0.01 52 1017.9
20260507014847 51 59 0.9 1.7 0.00 0.00 0.01 51 1017.9
20260507013902 52 50 0.0 0.9 0.00 0.00 0.01 49 1018.0
20260507013624 52 31 0.0 0.0 0.00 0.00 0.01 48 1018.1
20260507012902 53 62 0.0 0.9 0.00 0.00 0.01 47 1017.9
20260507012402 53 66 0.0 0.9 0.00 0.00 0.01 45 1017.9
20260507011902 54 37 0.0 0.9 0.00 0.00 0.01 42 1017.8
20260507011332 54 34 0.0 0.9 0.00 0.00 0.01 40 1018.0
20260507010802 55 42 0.0 1.7 0.00 0.00 0.01 40 1017.8
20260507010302 55 62 0.0 0.9 0.00 0.00 0.01 39 1017.9
20260507005732 55 55 0.0 1.7 0.00 0.00 0.01 38 1017.8
20260507005232 56 62 0.0 1.7 0.00 0.00 0.01 38 1017.8
20260507004702 56 37 1.7 1.7 0.00 0.00 0.01 37 1017.8
20260507004202 56 57 1.7 2.6 0.00 0.00 0.01 37 1017.9
20260507003702 57 56 1.7 1.7 0.00 0.00 0.01 36 1017.7
20260507003352 57 40 0.9 2.6 0.00 0.00 0.01 34 1017.9
20260507002602 57 164 0.0 3.5 0.00 0.00 0.01 35 1017.8
20260507002032 57 21 0.9 3.5 0.00 0.00 0.01 36 1017.7
20260507002019 58 54 0.0 3.5 0.00 0.00 0.01 35 1017.8
20260507001002 58 337 0.0 3.5 0.00 0.00 0.01 36 1017.7
20260507000502 58 101 1.7 2.6 0.00 0.00 0.01 35 1017.7
20260507000002 58 313 0.9 3.5 0.00 0.00 0.01 34 1017.6
20260506235652 58 352 0.0 2.6 0.00 0.00 0.01 35 1017.6
20260506235153 58 24 1.7 2.6 0.00 0.00 0.01 35 1017.7
20260506234654 58 50 1.7 2.6 0.00 0.00 0.01 34 1017.6
20260506233932 58 62 1.7 3.5 0.00 0.00 0.01 34 1017.7
20260506233402 58 40 1.7 3.5 0.00 0.00 0.01 34 1017.8
20260506232902 58 94 1.7 5.2 0.00 0.00 0.01 35 1018.0
20260506232332 58 99 0.9 4.3 0.00 0.00 0.01 34 1017.8
20260506231832 58 21 3.5 6.1 0.00 0.00 0.01 33 1017.9
20260506231332 59 182 0.9 5.2 0.00 0.00 0.01 33 1017.7
20260506231051 59 9 1.7 3.5 0.00 0.00 0.01 35 1017.7
20260506230332 59 74 3.5 3.5 0.00 0.00 0.01 32 1017.8
20260506230021 59 299 0.0 2.6 0.00 0.00 0.01 34 1017.9
20260506225232 59 353 1.7 3.5 0.00 0.00 0.01 34 1017.9
20260506224732 59 5 1.7 4.3 0.00 0.00 0.01 33 1017.9
20260506224232 59 54 1.7 5.2 0.00 0.00 0.01 33 1017.9
20260506223702 60 358 2.6 5.2 0.00 0.00 0.01 32 1018.1
20260506223202 60 46 1.7 5.2 0.00 0.00 0.01 33 1017.8
20260506222632 60 336 2.6 2.6 0.00 0.00 0.01 34 1017.9
20260506222132 61 10 2.6 5.2 0.00 0.00 0.01 33 1018.2
20260506221854 61 0 3.5 4.3 0.00 0.00 0.01 33 1018.2
20260506221102 61 41 0.0 3.5 0.00 0.00 0.01 31 1017.9
20260506220532 61 77 1.7 4.3 0.00 0.00 0.01 31 1018.0
20260506220032 62 15 3.5 9.6 0.00 0.00 0.01 31 1018.3
20260506215532 62 55 0.0 2.6 0.00 0.00 0.01 31 1018.0
20260506215002 61 248 1.7 5.2 0.00 0.00 0.01 34 1018.3
20260506214919 62 5 2.6 5.2 0.00 0.00 0.01 33 1018.3
20260506213932 62 276 0.9 2.6 0.00 0.00 0.01 32 1018.4
20260506213432 62 55 0.9 1.7 0.00 0.00 0.01 32 1018.5
20260506212902 61 358 2.6 4.3 0.00 0.00 0.01 33 1018.5
20260506212332 60 62 3.5 3.5 0.00 0.00 0.01 34 1018.5
20260506211832 61 14 2.6 13.0 0.00 0.00 0.01 31 1018.7
20260506211332 61 62 2.6 4.3 0.00 0.00 0.01 33 1018.6
20260506210802 61 77 0.9 3.5 0.00 0.00 0.01 35 1018.7
20260506210302 61 353 1.7 4.3 0.00 0.00 0.01 33 1018.9
20260506205951 60 37 1.7 5.2 0.00 0.00 0.01 33 1019.1
20260506205232 60 349 0.9 3.5 0.00 0.00 0.01 32 1018.9
20260506204702 60 341 3.5 10.4 0.00 0.00 0.01 32 1019.2
20260506204202 60 345 2.6 4.3 0.00 0.00 0.01 34 1019.2
20260506203702 60 39 1.7 4.3 0.00 0.00 0.01 31 1019.0
20260506203424 60 5 2.6 5.2 0.00 0.00 0.01 32 1019.1
20260506202852 60 0 0.9 6.1 0.00 0.00 0.01 32 1019.4
20260506202132 60 38 0.0 6.1 0.00 0.00 0.01 32 1019.5
20260506201602 60 59 0.9 3.5 0.00 0.00 0.01 33 1019.6
20260506201547 60 54 3.5 4.3 0.00 0.00 0.01 34 1019.6
20260506200602 60 349 1.7 4.3 0.00 0.00 0.01 34 1019.6
20260506195602 61 269 0.0 3.5 0.00 0.00 0.01 34 1019.7
20260506195102 61 51 3.5 5.2 0.00 0.00 0.01 30 1019.6
20260506194602 61 14 1.7 12.2 0.00 0.00 0.01 34 1019.6
20260506194102 60 20 0.0 3.5 0.00 0.00 0.01 40 1019.8
20260506193532 59 214 0.9 3.5 0.00 0.00 0.01 32 1019.7
20260506193253 59 89 1.7 4.3 0.00 0.00 0.01 34 1019.9
20260506192502 59 19 1.7 4.3 0.00 0.00 0.01 35 1019.8
20260506191932 60 352 4.3 5.2 0.00 0.00 0.01 31 1019.9
20260506191432 60 91 0.9 3.5 0.00 0.00 0.01 34 1019.8
20260506190932 59 7 1.7 1.7 0.00 0.00 0.01 36 1020.0
20260506190432 58 43 3.5 6.1 0.00 0.00 0.01 34 1020.0
20260506185432 59 338 3.5 7.0 0.00 0.00 0.01 34 1020.4
20260506184932 59 335 2.6 5.2 0.00 0.00 0.01 33 1020.0
20260506184402 59 344 0.9 2.6 0.00 0.00 0.01 38 1020.1
20260506183902 58 33 2.6 2.6 0.00 0.00 0.01 42 1019.9
20260506183332 58 36 1.7 4.3 0.00 0.00 0.01 34 1020.1
20260506182832 58 44 1.7 3.5 0.00 0.00 0.01 37 1020.2
20260506182306 58 3 1.7 5.2 0.00 0.00 0.01 35 1020.5
20260506182032 58 1 1.7 4.3 0.00 0.00 0.01 38 1020.2
20260506181532 57 6 2.6 3.5 0.00 0.00 0.01 36 1020.8
20260506181002 57 61 1.7 3.5 0.00 0.00 0.01 37 1020.5
20260506180502 56 64 1.7 4.3 0.00 0.00 0.01 36 1020.6
20260506180222 57 77 1.7 2.6 0.00 0.00 0.01 37 1020.4
20260506175502 56 42 0.9 1.7 0.00 0.00 0.01 38 1020.5
20260506175449 56 21 3.5 5.2 0.00 0.00 0.01 37 1020.5
20260506174432 57 21 1.7 5.2 0.00 0.00 0.01 39 1020.7
20260506173932 56 44 0.0 2.6 0.00 0.00 0.01 37 1020.4
20260506173402 57 85 0.0 5.2 0.00 0.00 0.01 37 1020.8
20260506172902 57 18 1.7 6.1 0.00 0.00 0.01 37 1020.9
20260506172332 57 58 1.7 2.6 0.00 0.00 0.01 39 1020.6
20260506171832 58 329 3.5 5.2 0.00 0.00 0.01 35 1020.9
20260506171524 58 11 0.9 4.3 0.00 0.00 0.01 36 1020.8
20260506170802 58 19 1.7 3.5 0.00 0.00 0.01 38 1020.8
20260506170302 58 341 1.7 5.2 0.00 0.00 0.01 36 1020.6